{"data":{"norad_id":45465,"intl_designator":"2020-022B","name":"AEHF-6 (USA 298)","alt_names":[],"object_type":"PAYLOAD","status":"ACTIVE","operator":null,"country":"US","launch_date":"2020-03-26","launch_site_code":"AFETR","launch_vehicle":null,"mission":null,"orbit_class":"UNKNOWN","rcs_meters":null,"size_class":null,"mass_kg":null,"dimensions":null,"purposes":["comms"],"wikipedia_slug":null,"has_3d_model":false,"image_url":null,"decayed_at":null,"tle_current":{"epoch":"2026-05-25T04:23:58.487712Z","epoch_age_seconds":56312,"freshness":"FRESH","line1":"1 45465U 20022B   26145.18331583 -.00000303  00000+0  00000+0 0  9995","line2":"2 45465   2.5984 300.8872 0044523  18.0744 127.5852  1.00269594 22789","mean_motion":1.00269594,"eccentricity":0.0044523,"inclination_deg":2.5984,"raan_deg":300.8872,"arg_perigee_deg":18.0744,"mean_anomaly_deg":127.5852,"bstar":0,"rev_number":2278,"period_min":1436.1282843132,"perigee_km":35599.476418372,"apogee_km":35974.941960049,"semimajor_km":42165.346189211,"source":"CELESTRAK","updated_at":"2026-05-25T13:38:14.093887Z"}}}